| time (UTC) | temp F | wind direction | speed MPH | gust MPH | rain 1hr in | rain 24hr in | rain mn in | humidity % | barometer mb |
| 20260510101536 | 50 | 151 | 0.0 | 2.0 | 0.00 | 0.36 | 0.05 | 89 | 1015.1 |
| 20260510100034 | 50 | 151 | 0.0 | 1.0 | 0.00 | 0.36 | 0.05 | 89 | 1015.0 |
| 20260510094533 | 50 | 151 | 0.0 | 1.0 | 0.00 | 0.37 | 0.05 | 89 | 1014.9 |
| 20260510093055 | 50 | 151 | 0.0 | 3.0 | 0.00 | 0.37 | 0.05 | 89 | 1014.5 |
| 20260510091534 | 50 | 151 | 0.0 | 3.0 | 0.00 | 0.37 | 0.05 | 89 | 1014.7 |
| 20260510090046 | 50 | 151 | 2.0 | 3.0 | 0.00 | 0.37 | 0.05 | 89 | 1014.4 |
| 20260510084532 | 50 | 225 | 1.0 | 4.0 | 0.00 | 0.37 | 0.05 | 89 | 1014.0 |
| 20260510083029 | 50 | 224 | 2.0 | 4.0 | 0.00 | 0.37 | 0.05 | 89 | 1014.1 |
| 20260510081531 | 50 | 225 | 2.0 | 4.0 | 0.00 | 0.37 | 0.05 | 88 | 1014.0 |
| 20260510080037 | 50 | 221 | 2.0 | 4.0 | 0.00 | 0.37 | 0.05 | 88 | 1013.9 |
| 20260510074526 | 51 | 297 | 1.0 | 3.0 | 0.00 | 0.38 | 0.05 | 88 | 1013.8 |
| 20260510073025 | 51 | 298 | 1.0 | 4.0 | 0.00 | 0.38 | 0.05 | 88 | 1013.6 |
| 20260510071524 | 51 | 235 | 0.0 | 5.0 | 0.00 | 0.38 | 0.05 | 88 | 1013.5 |
| 20260510070027 | 51 | 276 | 3.0 | 6.0 | 0.00 | 0.41 | 0.05 | 88 | 1013.7 |
| 20260510064522 | 51 | 225 | 3.0 | 7.0 | 0.00 | 0.41 | 0.05 | 87 | 1013.5 |
| 20260510063021 | 52 | 293 | 2.0 | 6.0 | 0.00 | 0.41 | 0.05 | 87 | 1014.0 |
| 20260510061522 | 52 | 209 | 3.0 | 6.0 | 0.01 | 0.41 | 0.05 | 87 | 1013.4 |
| 20260510060018 | 52 | 297 | 4.0 | 6.0 | 0.01 | 0.41 | 0.05 | 87 | 1014.5 |
| 20260510054517 | 52 | 217 | 2.0 | 4.0 | 0.02 | 0.41 | 0.05 | 86 | 1014.5 |
| 20260510053014 | 52 | 196 | 2.0 | 5.0 | 0.04 | 0.41 | 0.05 | 85 | 1014.4 |
| 20260510051512 | 53 | 227 | 1.0 | 4.0 | 0.04 | 0.40 | 0.04 | 85 | 1015.1 |
| 20260510050010 | 53 | 191 | 2.0 | 6.0 | 0.04 | 0.40 | 0.04 | 84 | 1015.3 |
| 20260510044508 | 53 | 211 | 3.0 | 6.0 | 0.03 | 0.39 | 0.03 | 84 | 1015.6 |
| 20260510043010 | 54 | 259 | 2.0 | 9.0 | 0.01 | 0.37 | 0.01 | 84 | 1015.4 |
| 20260510041506 | 54 | 251 | 3.0 | 9.0 | 0.00 | 0.36 | 0.00 | 84 | 1015.5 |
| 20260510040005 | 53 | 291 | 4.0 | 11.0 | 0.00 | 0.36 | 0.36 | 86 | 1015.0 |
| 20260510034503 | 52 | 294 | 4.0 | 5.0 | 0.00 | 0.36 | 0.36 | 87 | 1014.5 |
| 20260510033002 | 52 | 219 | 2.0 | 3.0 | 0.00 | 0.36 | 0.36 | 86 | 1014.0 |
| 20260510031502 | 52 | 219 | 3.0 | 5.0 | 0.00 | 0.36 | 0.36 | 86 | 1013.8 |
| 20260510030001 | 53 | 271 | 3.0 | 8.0 | 0.00 | 0.36 | 0.36 | 86 | 1014.0 |
| 20260510024501 | 53 | 208 | 4.0 | 8.0 | 0.00 | 0.36 | 0.36 | 86 | 1013.5 |
| 20260510023105 | 53 | 223 | 6.0 | 11.0 | 0.00 | 0.36 | 0.36 | 86 | 1013.2 |
| 20260510021559 | 53 | 225 | 2.0 | 7.0 | 0.00 | 0.36 | 0.36 | 86 | 1013.1 |
| 20260510020059 | 53 | 223 | 2.0 | 7.0 | 0.00 | 0.36 | 0.36 | 85 | 1013.2 |
| 20260510014558 | 53 | 240 | 2.0 | 6.0 | 0.00 | 0.36 | 0.36 | 85 | 1013.2 |
| 20260510013058 | 54 | 238 | 3.0 | 9.0 | 0.00 | 0.36 | 0.36 | 84 | 1012.9 |
| 20260510011559 | 54 | 237 | 4.0 | 9.0 | 0.00 | 0.36 | 0.36 | 83 | 1013.0 |
| 20260510010133 | 55 | 223 | 4.0 | 11.0 | 0.00 | 0.36 | 0.36 | 83 | 1012.7 |
| 20260510004559 | 55 | 213 | 5.0 | 8.0 | 0.00 | 0.36 | 0.36 | 83 | 1012.7 |
| 20260510003058 | 55 | 209 | 5.0 | 9.0 | 0.00 | 0.36 | 0.36 | 83 | 1012.3 |
| 20260510001603 | 56 | 184 | 4.0 | 8.0 | 0.00 | 0.36 | 0.36 | 82 | 1012.4 |
| 20260510000056 | 56 | 202 | 1.0 | 4.0 | 0.00 | 0.36 | 0.36 | 81 | 1012.4 |
| 20260509234625 | 57 | 219 | 2.0 | 6.0 | 0.00 | 0.36 | 0.36 | 81 | 1012.2 |
| 20260509233055 | 57 | 204 | 2.0 | 6.0 | 0.00 | 0.36 | 0.36 | 81 | 1012.2 |
| 20260509231555 | 58 | 207 | 3.0 | 6.0 | 0.00 | 0.36 | 0.36 | 80 | 1011.6 |
| 20260509230053 | 58 | 214 | 4.0 | 7.0 | 0.00 | 0.36 | 0.36 | 80 | 1011.7 |
| 20260509224550 | 57 | 217 | 6.0 | 11.0 | 0.00 | 0.36 | 0.36 | 80 | 1011.9 |
| 20260509223051 | 57 | 227 | 8.0 | 18.0 | 0.00 | 0.36 | 0.36 | 80 | 1012.1 |
| 20260509221550 | 57 | 227 | 7.0 | 14.0 | 0.00 | 0.36 | 0.36 | 80 | 1012.0 |
| 20260509220047 | 57 | 199 | 7.0 | 11.0 | 0.00 | 0.36 | 0.36 | 81 | 1012.0 |
| 20260509214546 | 57 | 238 | 8.0 | 12.0 | 0.00 | 0.36 | 0.36 | 82 | 1012.0 |
| 20260509213049 | 57 | 250 | 6.0 | 10.0 | 0.00 | 0.36 | 0.36 | 82 | 1012.2 |
| 20260509211550 | 56 | 267 | 5.0 | 9.0 | 0.00 | 0.36 | 0.36 | 84 | 1012.3 |
| 20260509210039 | 56 | 225 | 3.0 | 8.0 | 0.00 | 0.36 | 0.36 | 85 | 1012.5 |
| 20260509204537 | 55 | 234 | 4.0 | 7.0 | 0.00 | 0.36 | 0.36 | 85 | 1012.7 |
| 20260509203044 | 55 | 208 | 5.0 | 9.0 | 0.00 | 0.36 | 0.36 | 85 | 1012.8 |
| 20260509201534 | 55 | 242 | 5.0 | 10.0 | 0.00 | 0.36 | 0.36 | 86 | 1012.9 |
| 20260509200031 | 54 | 226 | 3.0 | 9.0 | 0.01 | 0.36 | 0.36 | 88 | 1012.9 |
| 20260509194530 | 54 | 226 | 2.0 | 5.0 | 0.01 | 0.36 | 0.36 | 88 | 1013.3 |
| 20260509193031 | 54 | 254 | 3.0 | 5.0 | 0.03 | 0.36 | 0.36 | 87 | 1013.2 |
| 20260509191530 | 53 | 209 | 1.0 | 4.0 | 0.03 | 0.36 | 0.36 | 87 | 1013.3 |
| 20260509190027 | 53 | 222 | 3.0 | 5.0 | 0.03 | 0.35 | 0.35 | 86 | 1013.4 |
| 20260509184532 | 53 | 232 | 4.0 | 10.0 | 0.03 | 0.35 | 0.35 | 86 | 1013.5 |
| 20260509183026 | 53 | 205 | 3.0 | 8.0 | 0.01 | 0.33 | 0.33 | 86 | 1013.5 |
| 20260509181525 | 53 | 212 | 2.0 | 7.0 | 0.01 | 0.33 | 0.33 | 85 | 1013.5 |
| 20260509180024 | 54 | 224 | 4.0 | 8.0 | 0.00 | 0.32 | 0.32 | 85 | 1013.4 |
| 20260509174524 | 54 | 204 | 4.0 | 9.0 | 0.00 | 0.32 | 0.32 | 85 | 1013.4 |
| 20260509173023 | 54 | 211 | 4.0 | 10.0 | 0.00 | 0.32 | 0.32 | 85 | 1013.4 |
| 20260509171521 | 53 | 228 | 4.0 | 9.0 | 0.00 | 0.32 | 0.32 | 86 | 1013.4 |
| 20260509170019 | 53 | 212 | 5.0 | 8.0 | 0.00 | 0.32 | 0.32 | 86 | 1013.4 |
| 20260509164519 | 53 | 200 | 4.0 | 12.0 | 0.00 | 0.32 | 0.32 | 86 | 1013.5 |
| 20260509163016 | 52 | 204 | 4.0 | 9.0 | 0.00 | 0.32 | 0.32 | 87 | 1013.6 |
| 20260509161517 | 52 | 215 | 2.0 | 8.0 | 0.00 | 0.32 | 0.32 | 87 | 1013.7 |
| 20260509160013 | 52 | 215 | 3.0 | 7.0 | 0.00 | 0.32 | 0.32 | 87 | 1013.9 |
| 20260509154519 | 52 | 219 | 2.0 | 8.0 | 0.01 | 0.32 | 0.32 | 87 | 1014.1 |
| 20260509153013 | 52 | 213 | 4.0 | 9.0 | 0.01 | 0.32 | 0.32 | 88 | 1014.0 |
| 20260509151506 | 52 | 204 | 2.0 | 6.0 | 0.02 | 0.32 | 0.32 | 88 | 1014.3 |
| 20260509144604 | 52 | 142 | 1.0 | 5.0 | 0.03 | 0.31 | 0.31 | 89 | 1014.7 |
| 20260509143100 | 51 | 97 | 1.0 | 4.0 | 0.03 | 0.31 | 0.31 | 89 | 1014.9 |
| 20260509141558 | 51 | 106 | 1.0 | 3.0 | 0.03 | 0.30 | 0.30 | 89 | 1015.0 |
| 20260509140057 | 51 | 107 | 1.0 | 3.0 | 0.03 | 0.28 | 0.28 | 89 | 1014.8 |
| 20260509134552 | 51 | 107 | 2.0 | 3.0 | 0.03 | 0.28 | 0.28 | 89 | 1014.8 |
| 20260509133049 | 50 | 107 | 1.0 | 4.0 | 0.04 | 0.28 | 0.28 | 89 | 1015.0 |
| 20260509131551 | 50 | 107 | 1.0 | 4.0 | 0.05 | 0.27 | 0.27 | 89 | 1015.0 |
| 20260509130056 | 50 | 134 | 2.0 | 7.0 | 0.06 | 0.26 | 0.26 | 89 | 1015.2 |
| 20260509124542 | 50 | 216 | 1.0 | 3.0 | 0.07 | 0.25 | 0.25 | 89 | 1015.4 |
| 20260509123034 | 50 | 227 | 1.0 | 3.0 | 0.07 | 0.23 | 0.23 | 88 | 1015.4 |
| 20260509121533 | 50 | 180 | 1.0 | 5.0 | 0.07 | 0.22 | 0.22 | 89 | 1015.2 |
| 20260509120034 | 49 | 210 | 1.0 | 5.0 | 0.05 | 0.19 | 0.19 | 89 | 1015.4 |
| 20260509114531 | 49 | 209 | 0.0 | 3.0 | 0.05 | 0.18 | 0.18 | 88 | 1015.4 |
| 20260509113031 | 49 | 209 | 2.0 | 6.0 | 0.06 | 0.16 | 0.16 | 88 | 1015.3 |
| 20260509111526 | 49 | 212 | 4.0 | 9.0 | 0.09 | 0.15 | 0.15 | 88 | 1015.5 |
| 20260509110025 | 48 | 141 | 2.0 | 6.0 | 0.09 | 0.14 | 0.14 | 88 | 1015.3 |
| 20260509104524 | 48 | 136 | 0.0 | 5.0 | 0.08 | 0.12 | 0.12 | 88 | 1015.1 |
| 20260509103021 | 48 | 72 | 0.0 | 2.0 | 0.06 | 0.10 | 0.10 | 88 | 1015.4 |